Radiation Dose measured at exhaust stack monitor of Fukushima Daiichi Nuclear Power Station
Date,Time,Unit 5 6 shared exhaust cylinders,Wind Direction,Wind Velocity(m/s)
2023/06/27,00:00,3.9,south-southwest,3.5
2023/06/27,00:10,3.7,south-southwest,2.9
2023/06/27,00:20,3.7,southwest,2.0
2023/06/27,00:30,3.9,south-southwest,1.7
2023/06/27,00:40,3.7,south-southwest,1.5
2023/06/27,00:50,3.6,south-southwest,1.2
2023/06/27,01:00,3.6,southwest,0.9
2023/06/27,01:10,3.7,south,0.6
2023/06/27,01:20,3.6,south,0.9
2023/06/27,01:30,3.7,southwest,0.5
2023/06/27,01:40,3.5,south,0.7
2023/06/27,01:50,3.6,southeast,0.6
2023/06/27,02:00,3.5,east-southeast,0.6
2023/06/27,02:10,3.7,southeast,0.9
2023/06/27,02:20,3.7,-,CALM
2023/06/27,02:30,3.7,south-southeast,0.8
2023/06/27,02:40,3.4,south-southeast,1.7
2023/06/27,02:50,3.6,south,2.2
2023/06/27,03:00,3.6,south,3.2
2023/06/27,03:10,3.7,south,3.4
2023/06/27,03:20,3.6,south-southwest,2.6
2023/06/27,03:30,3.6,south-southwest,1.5
2023/06/27,03:40,3.8,south-southwest,1.7
2023/06/27,03:50,3.7,south-southwest,1.2
2023/06/27,04:00,3.7,south-southwest,1.7
2023/06/27,04:10,3.7,southwest,1.5
2023/06/27,04:20,3.7,south,1.9
2023/06/27,04:30,3.7,south,1.5
2023/06/27,04:40,3.7,south-southeast,1.7
2023/06/27,04:50,3.7,south-southeast,0.9
2023/06/27,05:00,3.7,south-southeast,0.9
2023/06/27,05:10,3.6,south-southeast,1.4
2023/06/27,05:20,3.6,south,1.5
2023/06/27,05:30,3.6,south-southeast,0.9
2023/06/27,05:40,3.6,south-southeast,0.8
2023/06/27,05:50,3.6,-,CALM
2023/06/27,06:00,3.5,-,CALM
2023/06/27,06:10,3.5,east-southeast,1.1
2023/06/27,06:20,3.8,east-southeast,1.1
2023/06/27,06:30,3.6,east-southeast,0.6
2023/06/27,06:40,3.7,east-southeast,1.7
2023/06/27,06:50,3.7,south-southeast,1.5
2023/06/27,07:00,3.7,south-southeast,2.0
2023/06/27,07:10,3.6,south,1.5
2023/06/27,07:20,3.8,south-southeast,2.3
2023/06/27,07:30,3.6,south,1.9
2023/06/27,07:40,3.6,south-southeast,2.0
2023/06/27,07:50,3.8,south-southeast,2.6
2023/06/27,08:00,3.7,south-southeast,3.4
2023/06/27,08:10,3.7,south-southeast,4.2
2023/06/27,08:20,3.6,south-southeast,4.4
2023/06/27,08:30,3.8,south-southeast,5.5
2023/06/27,08:40,3.7,south-southeast,5.5
2023/06/27,08:50,3.7,south-southeast,6.0
2023/06/27,09:00,3.6,south-southeast,5.7
2023/06/27,09:10,3.8,south-southeast,6.1
2023/06/27,09:20,3.7,south,6.5
2023/06/27,09:30,3.6,south-southeast,7.5
2023/06/27,09:40,3.6,south-southeast,7.2
2023/06/27,09:50,3.6,south-southeast,6.7
2023/06/27,10:00,3.6,south,5.8
2023/06/27,10:10,3.7,south-southeast,8.2
2023/06/27,10:20,3.7,south-southeast,10.3
2023/06/27,10:30,3.6,south-southeast,9.5
2023/06/27,10:40,3.6,south-southeast,10.3
2023/06/27,10:50,3.6,south-southeast,11.1
2023/06/27,11:00,3.8,south-southeast,10.6
2023/06/27,11:10,3.5,south-southeast,10.2
2023/06/27,11:20,3.6,south-southeast,11.0
2023/06/27,11:30,3.8,south-southeast,9.1
2023/06/27,11:40,3.7,south,7.5
2023/06/27,11:50,3.6,south-southeast,8.4
2023/06/27,12:00,3.5,south,8.2
2023/06/27,12:10,3.8,south,8.7
2023/06/27,12:20,3.7,south,7.0
2023/06/27,12:30,3.7,south-southeast,9.5
2023/06/27,12:40,3.6,south,10.0
2023/06/27,12:50,3.7,south-southeast,10.2
2023/06/27,13:00,3.6,south,8.9
2023/06/27,13:10,3.8,south,8.6
2023/06/27,13:20,3.8,south-southeast,9.2
2023/06/27,13:30,3.6,south,8.8
2023/06/27,13:40,3.4,south,8.5
2023/06/27,13:50,3.7,south,7.3
2023/06/27,14:00,3.6,south,6.6
2023/06/27,14:10,3.6,south,6.5
2023/06/27,14:20,3.7,south,6.9
2023/06/27,14:30,3.5,south,6.6
2023/06/27,14:40,3.6,south,7.2
2023/06/27,14:50,3.7,south-southeast,5.3
2023/06/27,15:00,3.6,south,7.2
2023/06/27,15:10,3.7,south,5.6
2023/06/27,15:20,3.6,south,5.1
2023/06/27,15:30,3.8,south,4.5
2023/06/27,15:40,3.7,south,5.8
2023/06/27,15:50,3.5,south,6.1
2023/06/27,16:00,3.8,south,6.7
2023/06/27,16:10,3.7,south,5.7
2023/06/27,16:20,3.7,south,6.0
2023/06/27,16:30,3.7,south,5.2
2023/06/27,16:40,3.5,south,4.6
2023/06/27,16:50,3.7,south,5.6
2023/06/27,17:00,3.6,south,5.1
2023/06/27,17:10,3.7,south,4.7
2023/06/27,17:20,3.5,south,5.6
2023/06/27,17:30,3.5,south-southeast,5.2
2023/06/27,17:40,3.9,south,5.6
2023/06/27,17:50,3.7,south,5.8
2023/06/27,18:00,3.7,south,5.4
2023/06/27,18:10,3.6,south,5.0
2023/06/27,18:20,3.7,south,5.6
2023/06/27,18:30,3.5,south,5.9
2023/06/27,18:40,3.7,south,5.8
2023/06/27,18:50,3.7,south,4.8
2023/06/27,19:00,3.6,south,5.9
2023/06/27,19:10,3.5,south,5.9
2023/06/27,19:20,3.6,south,6.6
2023/06/27,19:30,3.5,south,5.9
2023/06/27,19:40,3.7,south-southwest,5.8
2023/06/27,19:50,3.6,south-southwest,5.3
2023/06/27,20:00,3.6,south-southwest,5.1
2023/06/27,20:10,3.7,south-southwest,4.5
2023/06/27,20:20,3.6,south-southwest,3.6
2023/06/27,20:30,3.8,southwest,3.7
2023/06/27,20:40,3.7,southwest,4.7
2023/06/27,20:50,3.8,southwest,4.6
2023/06/27,21:00,3.4,southwest,4.0
2023/06/27,21:10,3.7,southwest,3.6
2023/06/27,21:20,3.7,south-southwest,3.9
2023/06/27,21:30,3.6,south-southwest,4.9
2023/06/27,21:40,3.6,south-southwest,4.3
2023/06/27,21:50,3.7,south-southwest,3.5
2023/06/27,22:00,3.7,south-southwest,3.8
2023/06/27,22:10,3.7,south-southwest,4.2
2023/06/27,22:20,3.6,south-southwest,3.9
2023/06/27,22:30,3.7,south,3.8
2023/06/27,22:40,3.7,south,3.7
2023/06/27,22:50,3.6,south,3.2
2023/06/27,23:00,3.7,south,3.2
2023/06/27,23:10,3.7,south,3.1
2023/06/27,23:20,3.6,south,3.4
2023/06/27,23:30,3.5,south,3.9
2023/06/27,23:40,3.6,south,3.9
2023/06/27,23:50,3.6,south,4.8
